Voltar ao catálogo

STARLINK-11317

AtivoComunicaçõesVLEO
NORAD 61248·PAYLOAD·🇺🇸 United States

Lançado Sep 25, 2024 de Vandenberg Space Force Base

Loading…

Próximas Passagens (próximas 24 horas)

TLE

AtualizadoSource: CelesTrak SupGP

Época: Sep 15, 2026, 02:40 UTC

1 61248C 24175F   26258.11159722 -.00073452  00000+0 -60475-3 0  2586
2 61248  53.1570 202.2237 0001186  88.7439 172.2423 15.69757880    15

Acompanhe STARLINK-11317 em tempo real com AllMySat

Download on the App Store